Caribou, ME

5:31 AM EST on January 24, 2018 (GMT -0500)
Caribou Municipal

Weather History for KCAR - May, 2013

Change the Weather History Date:

Thursday, May 30, 2013

  Actual Average Record
Temperature  
Mean Temperature 63 °F 56 °F  
Max Temperature 73 °F 67 °F 85 °F (1999)
Min Temperature 53 °F 45 °F 32 °F (1967)
Degree Days  
Heating Degree Days 2 9  
Month to date heating degree days 349 414  
Since 1 July heating degree days 8363 9180  
Cooling Degree Days 0 0  
Month to date cooling degree days 1 0  
Year to date cooling degree days 1 0  
Growing Degree Days 13 (Base 50)    
Moisture  
Dew Point 56 °F    
Average Humidity 79    
Maximum Humidity 100    
Minimum Humidity 57    
Precipitation  
Precipitation 0.06 in 0.12 in 1.51 in (1983)
Month to date precipitation 5.16 3.22  
Year to date precipitation 13.67 13.31  
Snow  
Snow 0.00 in 0.00 in 0.00 in (2002)
Month to date snowfall 0.0 0.5  
Since 1 July snowfall 106.9 108.7  
Snow Depth 0.00 in    
Sea Level Pressure  
Sea Level Pressure 29.94 in    
Wind  
Wind Speed 5 mph (SW)    
Max Wind Speed 9 mph    
Max Gust Speed 16 mph    
Visibility 9 miles    
Events Rain    
T = Trace of Precipitation, MM = Missing Value Source: NWS Daily Summary

Daily Weather History Graph

Daily Weather History Graph

Search for Another Location

Airport or City:

Trip Planner

Search our weather history database for the weather conditions in past years. The results will help you decide how hot, cold, wet, or windy it might be!

Date:

Astronomy

May. 30, 2013 Rise Set
Actual Time 4:42 AM EDT 8:17 PM EDT
Civil Twilight 4:04 AM EDT 8:55 PM EDT
Nautical Twilight 3:13 AM EDT 9:46 PM EDT
Astronomical Twilight 2:05 AM EDT 10:55 PM EDT
Moon 12:02 AM EDT (5/30) 11:02 AM EDT (5/30)
Length of Visible Light 16h 51m
Length of Day
15h 34m
Waning Gibbous, 62% of the Moon is Illuminated
May 30
Waning Gibbous
May 31
Last Quarter
Jun 8
New
Jun 16
First Quarter
Jun 23
Full

Hourly Weather History & Observations

Time (EDT) Temp. Dew Point Humidity Pressure Visibility Wind Dir Wind Speed Gust Speed Precip Events Conditions
12:54 AM 54.0 °F 53.1 °F 97% 29.96 in 10.0 mi South 8.1 mph - 0.00 in   Overcast
1:54 AM 54.0 °F 53.1 °F 97% 29.94 in 6.0 mi South 5.8 mph - 0.05 in Rain Light Rain
2:54 AM 54.0 °F 53.1 °F 97% 29.93 in 10.0 mi South 5.8 mph - 0.01 in   Overcast
3:33 AM 53.6 °F 51.8 °F 94% 29.91 in 10.0 mi South 5.8 mph - 0.00 in   Overcast
3:54 AM 53.1 °F 52.0 °F 96% 29.92 in 10.0 mi South 5.8 mph - 0.00 in   Overcast
4:54 AM 53.1 °F 52.0 °F 96% 29.92 in 9.0 mi SSW 4.6 mph - N/A   Overcast
5:54 AM 54.0 °F 52.0 °F 93% 29.93 in 7.0 mi South 5.8 mph - N/A   Overcast
6:54 AM 54.0 °F 53.1 °F 97% 29.94 in 4.0 mi SSW 3.5 mph - N/A   Overcast
7:26 AM 55.4 °F 53.6 °F 94% 29.93 in 2.5 mi SSW 3.5 mph - N/A   Overcast
7:52 AM 55.4 °F 53.6 °F 94% 29.93 in 4.0 mi SSW 5.8 mph - N/A   Overcast
7:54 AM 55.0 °F 54.0 °F 96% 29.95 in 4.0 mi SSW 5.8 mph - N/A   Overcast
8:54 AM 57.9 °F 55.9 °F 93% 29.94 in 8.0 mi SW 5.8 mph - N/A   Overcast
9:26 AM 59.0 °F 57.2 °F 94% 29.93 in 10.0 mi WSW 4.6 mph - N/A   Overcast
9:54 AM 60.1 °F 57.0 °F 90% 29.95 in 10.0 mi WSW 4.6 mph - N/A   Overcast
10:54 AM 62.1 °F 57.9 °F 86% 29.94 in 10.0 mi South 3.5 mph - N/A   Overcast
11:06 AM 62.6 °F 57.2 °F 82% 29.93 in 10.0 mi Variable 4.6 mph - N/A   Overcast
11:27 AM 64.4 °F 59.0 °F 83% 29.93 in 10.0 mi SW 3.5 mph - N/A   Overcast
11:54 AM 66.0 °F 60.1 °F 81% 29.94 in 10.0 mi South 5.8 mph - N/A   Overcast
12:07 PM 66.2 °F 60.8 °F 83% 29.92 in 10.0 mi Calm Calm - N/A   Overcast
12:49 PM 66.2 °F 60.8 °F 83% 29.92 in 10.0 mi WSW 4.6 mph - N/A   Overcast
12:54 PM 66.0 °F 60.1 °F 81% 29.94 in 10.0 mi SW 5.8 mph - N/A   Overcast
1:54 PM 69.1 °F 61.0 °F 75% 29.92 in 10.0 mi Calm Calm - 0.00 in   Overcast
2:54 PM 71.1 °F 59.0 °F 66% 29.92 in 10.0 mi WNW 5.8 mph - N/A   Overcast
3:54 PM 71.1 °F 57.9 °F 63% 29.93 in 10.0 mi WNW 6.9 mph - N/A   Overcast
4:54 PM 72.0 °F 57.9 °F 61% 29.93 in 10.0 mi Variable 4.6 mph - N/A   Mostly Cloudy
5:54 PM 73.0 °F 57.0 °F 57% 29.94 in 10.0 mi WNW 8.1 mph - N/A   Mostly Cloudy
6:54 PM 72.0 °F 57.9 °F 61% 29.95 in 10.0 mi WNW 4.6 mph - N/A   Partly Cloudy
7:54 PM 68.0 °F 57.9 °F 70% 29.96 in 10.0 mi Calm Calm - N/A   Partly Cloudy
8:54 PM 66.0 °F 57.0 °F 73% 29.96 in 10.0 mi SW 3.5 mph - N/A   Clear
9:54 PM 63.0 °F 57.0 °F 81% 29.96 in 10.0 mi Calm Calm - N/A   Clear
10:54 PM 61.0 °F 57.0 °F 87% 29.96 in 10.0 mi SSW 4.6 mph - N/A   Clear
11:54 PM 60.1 °F 57.0 °F 90% 29.97 in 10.0 mi SW 3.5 mph - N/A   Clear